EUTELSAT KA-SAT 9A

Last updated on Mon Jul 07 2025 00:02:44 GMT+0000 (Coordinated Universal Time)

1 37258U 10069A 25187.13766050 .00000079 00000+0 00000+0 0 9996 2 37258 0.0599 305.4721 0004141 186.2677 211.1783 1.00273859 40539
UTC large
Height (km)
Speed (km/s)
/
Latitude / Longitude
Inclination (degrees)
Orbital Period (minutes)
Azimuth
Elevation
Range (km)
Doppler Factor

Next 0 passes for location: London (51.5072 / 0.1276)

Sorry there are no passes over London.